Location: Dzierzno
(50.6159°N, 19.2852°E)
Time: 00:06:00
(UTC+00:00)

Okean 1 Rocket - Pass Details

Date: 18 November 2025
Orbit: 599 x 628 km, 82.5° (Epoch: 04 December)

Event Time Altitude Azimuth Distance (km) Brightness Sun altitude
Rises 16:24:13 0° 159° (SSE) 2,888 6.4 -14.3°
Reaches altitude 10° 16:26:39 10° 148° (SSE) 1,983 5.5 -14.6°
Maximum altitude 16:30:25 28° 89° (E) 1,153 3.9 -15.2°
Enters shadow 16:31:16 26° 68° (ENE) 1,210 4.0 -15.4°
